Dewpoint
57 51 48 46 53 49 39 39 30 33 31 26 26 28 27 33 32 37 37 38 41 44 45 50 52 51 46 48 48 52 54 45 45 44 42 49 62 66 67 68 68 69 69 70 69 69 70 70 70 70 70 69 68 68 67 66 66 66 65 64 64 64 64 64 66 66 66 67 67 67 66 69 69 69 67 65 64 64 64 63 64 64 64 64 65 65 65 64 64 64 65 64 64 65 65 65 65
53 51 49 49 49 38 32 38 31 30 30 27 27 29 31 35 37 36 38 39 40 47 51 54 55 55 55 55 56 54 50 55 55 53 57 62 66 67 68 68 68 68 69 69 69 69 69 70 70 70 69 69 68 67 66 66 67 66 64 64 64 63 63 63 64 66 65 65 66 67 67 67 67 68 67 66 65 64 64 63 64 64 65 65 65 65 65 64 64 64 64 64 64 64 65 65 64
55 53 47 42 38 40 39 34 26 27 27 23 25 30 36 36 36 38 40 43 45 50 53 53 53 54 54 54 51 49 45 56 57 58 61 66 64 66 68 68 69 69 69 69 69 69 69 69 70 70 69 69 68 67 66 66 66 65 65 65 65 65 64 64 65 65 66 65 67 67 67 67 66 66 65 65 66 66 65 66 66 66 66 65 65 65 64 65 64 64 64 64 64 64 65 65 65
54 54 47 40 34 38 33 32 31 27 25 26 27 33 39 39 39 41 44 46 47 49 46 47 52 53 53 52 52 55 54 54 57 60 61 63 63 67 68 69 69 69 69 69 69 69 68 70 70 70 69 69 68 67 67 67 66 65 66 66 65 66 66 65 65 65 65 65 66 67 66 65 65 65 66 67 68 68 67 66 65 64 63 64 64 64 65 65 65 65 64 64 64 65 65 65 64
50 55 48 42 38 34 32 29 27 28 22 24 28 33 39 42 43 43 44 45 45 45 45 47 51 54 55 54 54 51 51 56 57 58 59 61 67 68 68 69 69 69 69 69 69 68 68 69 70 70 69 68 68 67 67 67 66 67 67 67 67 66 66 65 65 65 65 66 66 66 66 65 67 67 68 69 69 68 67 65 65 63 63 63 63 64 64 65 65 65 64 64 65 65 65 65 64
51 49 52 41 34 37 34 27 28 27 24 29 34 38 40 42 43 44 44 43 43 44 45 50 50 51 54 55 56 53 56 54 57 57 59 62 67 68 68 68 68 68 69 68 68 68 68 69 70 70 70 69 68 68 67 67 67 67 67 66 66 65 65 65 65 65 65 65 65 64 64 65 67 67 67 68 68 68 68 66 65 65 64 64 64 64 64 64 64 64 64 64 64 65 65 64 64
47 42 43 42 39 37 30 28 27 28 23 33 37 40 42 42 44 43 41 40 40 47 49 52 54 53 52 53 55 57 58 59 57 57 63 65 67 68 68 68 68 68 68 68 68 68 68 69 70 70 70 69 68 68 67 67 67 67 66 65 63 64 64 64 65 65 65 64 64 64 65 66 67 66 66 67 68 68 68 67 66 65 64 64 65 65 65 64 64 64 64 64 64 65 64 64 64
52 36 41 35 34 34 29 28 28 29 22 32 38 40 42 43 44 40 39 39 38 40 47 51 49 51 50 55 51 56 58 58 58 59 65 67 67 67 67 67 67 67 68 68 68 68 70 68 70 70 70 69 67 68 68 67 66 66 65 63 63 63 63 63 64 64 65 65 65 65 65 66 66 66 67 67 68 68 67 67 67 66 65 64 63 63 63 64 64 64 64 63 63 64 64 64 64
46 39 48 38 32 39 33 31 30 32 27 33 41 41 48 44 43 39 37 37 40 40 42 48 49 45 49 53 52 55 57 57 58 62 65 66 66 66 67 67 67 67 68 68 68 68 68 68 69 70 69 69 68 67 66 66 66 65 64 63 63 63 63 64 65 66 67 66 66 66 65 65 67 67 67 67 67 67 67 67 67 65 64 64 64 65 65 64 64 64 64 63 63 63 63 63 63
44 37 33 35 39 32 33 32 22 23 23 23 41 40 44 44 42 38 38 39 39 41 44 48 45 47 52 52 52 54 55 58 59 61 63 65 65 66 66 66 67 67 68 68 68 68 68 70 68 69 69 69 69 68 68 66 65 65 64 63 63 65 66 66 67 67 67 66 65 65 64 65 66 67 67 66 66 67 67 66 66 66 66 65 65 64 64 64 64 64 63 63 63 63 63 63 63
38 44 46 36 35 32 30 28 31 32 22 28 28 28 42 40 36 38 39 37 39 41 47 48 52 53 53 53 52 56 58 57 59 59 60 63 65 66 66 66 67 67 67 68 69 69 68 68 69 67 68 68 68 68 68 67 66 65 65 67 67 68 68 68 67 66 65 65 64 63 64 64 64 65 66 67 67 66 66 66 65 65 65 65 65 65 65 64 63 63 63 63 63 62 62 62 62
33 39 40 35 33 31 31 28 31 34 31 31 31 28 30 38 36 38 39 38 39 39 40 49 50 52 51 51 51 55 57 56 58 58 60 63 65 66 66 66 67 67 68 68 69 69 68 67 67 68 66 66 67 67 67 67 68 67 68 68 68 67 67 67 66 65 65 64 63 62 63 63 63 65 65 66 66 66 65 65 65 65 64 64 64 64 64 64 63 63 63 63 63 62 62 62 63
38 42 36 32 31 30 32 29 29 32 30 26 29 29 32 34 34 37 38 38 38 33 31 35 54 52 49 49 52 56 55 56 57 58 61 64 65 65 66 67 67 67 68 68 68 68 68 67 66 66 66 65 64 65 66 68 68 69 68 67 68 67 67 66 65 65 64 63 63 63 64 65 65 65 64 64 65 65 65 65 64 64 63 63 64 64 64 64 64 63 63 63 63 63 62 62 62
40 41 37 35 36 33 31 30 30 24 23 28 29 31 34 33 33 38 39 37 38 32 34 39 54 53 53 54 54 54 55 56 57 59 61 64 64 65 66 67 67 67 67 68 68 68 68 66 66 65 65 65 64 65 65 67 67 68 68 68 68 67 67 66 66 66 65 66 67 67 66 67 67 66 66 66 65 65 66 66 64 64 63 63 63 64 64 64 63 63 63 63 63 63 62 62 62
39 44 42 38 34 31 32 29 30 27 24 27 28 33 34 36 34 34 38 38 39 37 41 40 53 37 39 52 51 56 56 57 57 59 61 63 64 64 65 66 66 67 67 67 68 68 67 66 65 65 64 64 64 65 65 66 66 66 67 67 67 67 67 67 67 66 67 67 66 66 65 65 65 65 65 66 65 65 65 65 65 65 63 63 63 63 63 63 63 63 63 63 63 63 63 63 64
45 41 37 35 32 31 31 27 31 29 27 27 27 33 33 33 37 37 38 39 40 43 39 38 42 32 37 49 50 56 57 57 58 59 61 62 62 63 65 65 65 66 67 67 67 67 67 65 65 65 64 64 64 64 65 65 65 64 65 65 65 66 66 66 66 65 65 63 63 63 62 62 61 61 61 62 63 64 63 62 64 65 63 63 63 63 63 63 62 62 63 63 63 63 65 64 63
48 41 32 33 30 31 33 25 27 25 28 28 28 30 31 32 34 35 37 42 39 41 50 49 43 53 53 52 53 57 58 57 58 59 60 61 62 62 63 64 65 65 66 66 67 67 66 65 65 64 63 64 64 64 64 64 65 64 64 64 64 64 65 65 64 62 61 61 60 60 60 60 61 61 61 61 61 60 60 62 64 65 63 63 63 62 62 63 62 62 62 62 62 65 61 59 59
43 37 33 31 35 31 35 25 27 29 26 26 25 29 31 31 33 34 37 41 43 45 47 48 53 54 55 55 57 58 57 57 58 59 59 59 60 61 62 63 63 63 64 65 66 67 66 65 65 64 63 63 63 64 64 64 64 64 64 63 63 63 63 62 63 62 62 60 58 59 59 60 60 61 61 62 61 62 61 60 61 64 64 64 63 63 63 63 63 62 62 62 63 64 60 55 54
40 39 34 31 34 34 33 26 28 23 23 25 25 28 31 31 32 34 36 36 42 41 44 48 51 54 56 56 57 57 57 57 57 58 58 58 59 60 61 62 62 63 64 65 66 67 66 65 64 63 63 63 63 64 65 65 65 65 65 65 63 62 63 62 61 61 59 58 58 58 59 59 59 60 61 61 61 59 60 59 60 62 62 62 62 63 64 64 63 63 63 64 64 61 57 55 54
41 37 34 34 37 35 29 25 24 24 24 23 24 25 31 29 33 34 33 36 39 39 42 46 49 51 53 55 56 56 57 56 57 57 57 58 58 60 60 61 62 63 63 64 65 66 66 65 64 63 63 63 63 64 64 65 65 65 65 65 64 63 61 60 60 58 58 57 57 58 58 59 59 59 60 61 60 59 59 58 58 58 58 58 58 57 58 59 61 62 61 61 59 55 54 53 54
38 36 36 36 37 26 23 24 24 23 24 23 24 24 25 25 28 31 30 36 36 38 42 44 47 52 55 55 56 56 56 56 56 56 56 57 57 59 60 61 62 62 64 65 65 66 66 65 64 63 63 63 63 63 64 64 64 64 64 64 64 64 62 60 59 57 57 57 56 56 57 58 58 59 59 59 58 58 58 57 57 57 56 56 55 55 54 54 55 54 53 53 52 52 53 54 53
39 35 36 37 36 29 25 24 26 27 27 25 25 24 24 26 24 28 33 33 31 33 36 43 46 54 55 56 56 56 56 56 56 56 56 56 56 57 58 59 59 61 63 63 64 65 66 65 65 63 62 62 63 63 63 63 63 63 63 63 64 63 63 61 60 57 56 56 56 56 57 58 58 58 58 57 56 57 57 56 56 56 56 54 54 54 53 53 53 52 52 53 54 54 54 56 55
33 34 37 38 29 29 27 28 31 29 28 25 24 25 30 25 24 25 30 28 27 29 31 39 47 56 57 57 56 55 55 55 56 56 56 56 56 56 57 59 59 58 60 62 63 65 66 66 65 63 63 62 62 63 63 63 63 63 63 63 63 63 62 61 60 58 57 56 56 56 58 57 58 58 57 56 55 56 56 56 56 55 55 54 55 53 52 53 54 53 52 52 54 55 55 57 58
34 32 36 35 34 27 29 33 33 31 28 27 29 33 31 27 24 26 24 24 26 26 27 32 47 56 57 56 56 56 56 56 56 56 56 56 56 56 57 57 58 58 58 61 62 64 65 65 65 64 63 62 62 62 62 62 62 62 62 61 62 62 61 61 61 59 58 57 57 57 57 57 57 57 57 55 55 54 55 55 55 55 55 54 55 54 53 52 53 53 52 52 54 55 56 56 56
34 33 36 36 31 31 32 33 32 34 34 32 32 31 31 29 29 29 27 26 25 25 29 39 55 56 57 56 56 56 56 56 56 56 56 56 56 56 56 57 57 57 57 58 60 63 64 65 65 64 63 62 62 62 62 62 61 61 61 61 61 61 61 61 60 59 58 57 57 57 56 56 55 57 56 55 53 54 54 54 55 55 54 54 54 55 54 53 53 53 53 54 54 54 54 55 55
37 34 36 32 31 32 33 35 36 36 36 33 33 32 33 32 34 32 33 33 31 32 34 44 54 56 56 56 57 56 56 56 56 56 56 56 56 56 56 56 57 57 57 57 58 61 63 64 65 64 64 63 62 62 62 61 60 60 60 60 60 59 60 60 59 59 59 58 57 57 57 58 57 56 56 54 54 54 54 54 54 54 54 54 54 55 55 53 53 52 53 53 53 53 53 54 55
39 37 35 34 34 32 36 33 34 39 38 37 36 36 36 37 30 30 32 31 31 30 45 47 54 55 56 56 57 57 57 56 56 57 56 56 56 56 56 56 56 56 57 57 57 58 61 63 63 64 64 62 62 62 61 61 60 60 59 60 59 59 59 59 59 59 59 58 58 57 57 57 57 57 56 55 54 55 54 55 55 55 54 55 55 56 53 54 53 54 55 54 54 53 53 52 53
38 37 34 34 36 37 39 38 36 38 35 38 37 36 37 36 33 32 33 33 30 27 43 47 52 54 56 56 56 57 57 57 57 57 56 56 56 56 56 56 56 56 56 56 57 57 58 61 62 63 63 63 62 62 61 61 60 60 59 59 59 59 59 58 58 58 58 58 58 57 57 57 56 57 56 55 55 55 54 55 55 54 55 56 55 55 54 54 54 55 54 53 53 52 51 53 53
37 37 35 35 35 35 36 36 36 37 35 37 37 33 32 34 32 32 34 35 28 27 33 46 50 53 55 56 56 56 57 57 58 57 57 57 57 57 56 56 56 56 56 57 57 57 57 59 60 61 63 63 62 62 61 60 60 60 59 59 59 58 58 58 58 58 58 58 58 57 57 57 56 57 56 56 55 56 56 55 54 54 55 55 55 55 54 53 53 52 54 52 53 54 54 54 53
37 36 36 35 35 34 35 39 39 37 37 35 35 29 30 31 32 33 32 33 32 30 28 37 45 47 52 55 56 56 57 56 57 58 58 58 58 57 57 57 56 56 56 57 57 57 57 58 59 60 62 62 62 62 61 60 59 60 59 60 59 58 58 58 57 57 57 58 57 57 57 57 56 56 56 56 56 56 56 55 55 55 55 54 54 54 54 53 54 53 55 53 54 53 53 53 53
35 36 35 34 34 33 35 37 39 35 38 37 35 31 31 32 35 36 34 31 32 31 31 29 37 43 45 51 55 56 56 57 57 58 58 58 58 58 57 57 57 56 56 56 56 57 57 57 58 58 60 62 61 61 60 59 59 59 59 59 59 59 58 57 57 57 57 57 57 57 57 57 57 57 56 56 56 56 56 55 55 56 56 55 54 54 55 54 54 55 53 54 52 53 52 51 52
38 35 34 37 34 34 33 38 37 34 36 37 35 33 32 33 35 36 36 35 33 32 32 32 31 34 41 44 50 54 56 57 57 57 58 58 58 58 58 57 57 57 56 56 57 57 56 57 57 58 59 60 61 61 60 59 58 58 58 58 58 58 58 57 57 57 57 57 57 57 57 57 57 57 56 56 56 56 56 56 56 55 55 54 55 54 55 55 55 54 54 54 53 52 51 52 51
40 36 36 34 34 34 35 37 38 36 35 37 35 33 34 35 35 36 36 35 33 32 32 31 30 30 32 38 45 48 53 55 56 57 57 58 59 59 59 58 57 57 57 56 56 57 57 57 57 57 58 59 60 60 59 58 57 57 58 58 58 58 58 57 57 57 57 56 57 57 57 57 57 57 57 56 56 56 56 56 56 55 55 55 55 55 55 56 55 55 54 54 53 52 50 51 52
37 37 36 37 34 34 34 36 38 38 34 33 35 34 34 35 34 29 30 34 33 32 32 32 32 30 30 32 38 45 48 52 54 56 57 58 59 59 59 58 57 57 58 57 56 56 57 57 57 57 57 58 59 59 58 58 57 57 57 58 57 57 57 57 57 57 57 57 57 57 57 57 57 57 57 57 57 56 56 56 56 55 55 55 56 55 56 56 55 55 54 52 53 52 51 52 52
36 36 36 37 36 35 35 36 37 37 37 33 33 34 34 35 35 35 35 29 31 31 31 32 32 31 29 31 33 39 45 47 50 54 56 57 58 59 59 59 58 57 58 57 57 57 57 57 57 57 57 57 58 58 58 58 58 57 57 57 57 57 57 57 57 57 57 57 57 57 57 57 57 57 57 57 57 57 56 56 56 56 56 56 55 55 55 54 54 53 54 52 51 52 53 53 53
38 37 36 37 35 35 34 36 38 37 36 35 34 32 33 34 34 35 35 35 33 32 30 30 30 29 29 29 33 35 37 43 47 50 53 56 57 58 59 59 59 58 58 58 57 57 57 57 57 57 57 57 58 58 58 58 58 57 57 56 56 57 57 57 57 57 57 57 57 57 57 57 57 56 57 57 57 57 56 56 56 56 55 55 55 55 55 54 54 52 52 53 52 52 52 51 52
39 38 37 37 36 36 38 37 38 37 36 36 36 35 34 34 35 35 35 34 31 31 32 30 28 28 29 29 30 33 35 36 41 46 50 54 56 57 58 59 59 59 58 58 57 57 57 57 57 57 57 57 57 57 57 57 57 57 57 57 57 57 57 58 57 57 57 57 57 57 57 57 57 56 56 57 57 57 57 57 56 56 56 55 56 56 56 55 54 54 54 52 53 52 53 51 51
39 38 37 37 37 36 38 38 39 33 35 33 36 36 36 36 37 36 35 31 31 31 30 29 28 27 27 28 28 30 33 38 40 41 48 52 54 56 57 57 57 58 59 58 58 57 57 57 57 57 57 57 57 57 57 57 57 57 57 57 57 57 57 57 57 57 57 57 57 57 57 57 57 57 56 57 57 58 57 57 57 57 56 56 56 56 55 53 54 53 53 53 53 54 54 52 52
39 38 38 37 37 37 38 39 33 31 35 34 34 32 33 34 35 36 35 34 34 34 33 31 29 29 29 29 29 28 29 32 35 38 42 49 52 54 56 57 57 58 59 59 59 58 57 57 57 57 57 57 57 57 57 57 58 58 58 57 58 57 58 58 58 57 57 57 56 57 57 58 58 58 57 56 57 58 58 58 57 57 57 56 55 55 55 54 54 54 54 55 53 53 52 51 53
39 38 37 37 38 37 36 38 30 29 33 31 32 32 33 34 34 35 35 34 34 35 34 34 33 31 31 31 31 32 31 31 31 33 37 44 50 52 55 56 56 57 58 58 59 59 58 57 57 57 57 57 57 57 57 58 58 58 58 58 58 58 57 57 57 57 57 57 57 57 57 58 58 58 58 57 57 58 58 58 58 57 57 57 57 56 55 55 54 54 54 54 55 54 53 53 52
41 39 37 37 37 37 37 37 31 32 32 33 32 32 33 34 34 35 35 35 35 35 35 35 36 36 35 36 36 35 32 32 32 31 34 41 47 51 53 55 56 56 57 58 58 59 59 58 58 57 57 57 57 57 57 58 58 57 57 55 55 55 54 56 56 57 57 57 57 57 56 57 58 59 59 58 57 57 58 59 59 58 58 57 57 57 56 56 55 55 55 54 55 55 54 52 53
40 40 40 38 39 38 38 33 32 32 34 33 32 30 31 33 35 35 36 34 32 34 34 35 35 36 37 37 37 37 38 37 34 32 32 37 44 48 52 54 55 56 56 57 58 59 59 59 59 58 58 57 57 57 57 57 57 57 57 57 56 56 56 56 56 56 57 57 57 57 57 56 57 58 59 59 59 57 58 58 59 59 58 57 57 57 57 56 55 55 55 55 55 55 55 54 54
39 39 41 40 40 39 39 33 36 33 33 34 32 32 31 30 32 32 33 32 33 34 33 33 34 34 34 36 38 38 38 39 39 37 35 36 42 46 50 52 54 55 56 57 57 58 59 59 59 59 58 58 58 57 58 57 57 57 57 57 57 56 56 56 57 57 57 57 57 57 57 56 56 56 58 59 59 58 58 58 58 59 59 58 56 57 57 56 56 56 55 55 56 55 54 54 54
39 39 42 41 40 39 38 35 37 36 34 35 29 31 31 31 33 34 34 32 32 32 32 32 32 32 32 33 34 36 37 38 39 39 38 36 38 44 47 50 53 54 55 56 57 57 58 58 59 59 59 58 58 58 58 57 57 57 57 57 57 57 57 56 56 57 56 56 57 57 57 57 56 56 56 57 58 58 58 58 58 58 59 59 57 57 58 57 56 56 55 56 56 56 55 55 54
37 40 42 41 41 39 37 37 35 34 35 34 30 29 28 28 30 31 33 32 33 33 34 34 34 35 35 34 34 34 35 36 37 39 39 37 36 41 45 48 51 53 55 56 56 57 58 58 58 59 59 59 59 58 58 57 57 57 57 57 57 57 57 57 56 56 56 56 56 56 56 56 56 56 56 56 57 58 57 58 58 58 58 58 57 58 58 57 57 56 55 55 56 55 56 56 55
40 40 42 41 39 38 38 35 35 35 35 33 34 31 30 32 30 32 29 30 32 33 34 34 35 35 35 35 36 35 35 35 37 37 37 37 36 37 43 47 50 53 54 55 56 57 57 58 58 58 59 59 59 59 58 58 57 57 57 57 57 57 57 57 56 56 56 56 56 56 56 56 57 57 56 56 57 58 58 58 58 58 58 58 56 58 57 57 57 57 57 56 56 56 56 56 56
42 42 40 38 33 32 34 34 33 34 34 35 37 31 32 31 32 33 32 32 32 33 33 34 34 34 34 34 34 35 35 35 36 37 37 36 36 35 39 45 48 51 54 55 55 56 57 57 58 58 58 59 59 59 59 58 58 58 57 57 57 57 57 57 57 57 57 56 57 57 57 57 57 57 57 56 57 57 58 58 58 58 59 58 57 57 57 58 57 57 57 57 56 56 56 55 54
43 39 38 38 34 35 35 32 34 32 32 35 37 33 33 31 31 32 34 33 32 33 33 33 33 33 33 34 33 33 33 34 35 36 36 36 35 34 38 43 47 50 53 54 55 56 56 57 57 58 58 58 59 59 59 59 59 58 58 58 58 58 58 58 57 57 57 57 57 57 57 57 57 58 58 58 58 58 58 58 58 58 58 59 59 58 58 58 58 58 57 57 57 57 57 55 55
43 40 40 36 31 34 30 33 31 31 31 30 34 34 31 33 33 31 31 32 33 33 32 33 33 33 33 32 32 33 34 35 35 36 36 37 35 34 36 40 45 49 52 53 54 55 56 56 57 57 57 58 58 59 59 59 59 59 59 59 59 59 59 59 58 58 58 58 58 58 58 58 58 58 58 58 59 58 58 58 58 58 59 59 59 59 58 58 58 58 57 57 57 56 57 56 56
42 40 37 33 30 29 28 31 33 32 33 31 32 32 33 34 34 36 35 36 35 35 34 34 33 33 32 33 33 33 34 34 35 37 37 37 36 35 35 38 43 47 50 52 54 54 55 56 56 57 57 57 58 58 59 59 59 60 60 59 59 59 59 59 59 59 59 59 59 59 59 59 58 58 58 59 59 59 59 59 59 59 59 59 58 59 58 58 57 58 57 57 56 57 57 56 56
42 43 41 35 32 30 25 28 27 28 28 29 31 33 30 30 32 29 35 36 36 33 32 34 35 35 35 35 35 34 34 34 35 35 36 37 37 36 36 38 41 46 49 52 53 54 55 55 56 56 56 57 57 58 58 59 59 60 60 60 60 60 60 59 60 60 60 60 59 59 59 59 59 59 59 59 58 59 59 59 59 59 59 59 58 58 58 58 57 57 57 57 57 57 56 56 56
42 41 41 37 33 33 27 23 28 30 28 25 27 32 32 31 32 32 31 32 31 31 31 31 30 31 32 31 32 33 33 34 35 34 35 35 36 36 36 38 41 44 47 51 53 54 55 55 56 56 56 56 57 57 57 58 58 59 59 60 60 59 59 59 59 59 60 60 60 60 60 60 60 60 60 59 59 59 59 59 58 59 59 59 59 58 58 58 57 57 58 57 57 56 56 56 56
39 41 37 38 38 33 27 25 26 26 25 27 23 29 31 32 32 33 34 33 32 32 31 31 31 31 30 30 30 31 33 34 35 35 35 35 34 34 35 36 40 44 47 50 52 53 54 55 55 56 56 56 56 56 57 57 58 58 59 59 60 59 59 59 59 59 59 60 60 60 60 60 60 61 60 59 60 59 59 59 59 58 59 59 59 59 59 58 58 58 58 57 57 57 56 56 56
41 36 40 41 39 36 32 27 21 23 22 22 28 27 28 26 27 32 32 32 31 30 29 29 30 30 29 30 30 30 31 33 34 34 34 34 34 34 34 35 37 41 46 49 51 53 54 55 55 55 55 56 56 56 57 57 57 57 58 58 59 59 60 59 60 59 59 59 60 60 60 60 60 60 59 59 59 59 59 56 59 59 58 58 59 60 59 59 58 58 58 58 58 57 56 56 56
40 38 44 38 33 32 32 29 24 23 23 21 24 28 27 28 26 21 28 31 31 30 28 27 27 29 29 29 30 30 29 29 29 30 31 32 33 34 35 34 35 36 40 46 49 50 52 53 54 55 55 56 56 56 57 57 57 57 57 57 58 59 59 60 60 59 59 59 59 60 60 60 60 59 57 58 58 58 58 58 59 59 59 59 59 59 59 59 58 58 57 57 57 57 56 56 56
42 42 42 40 38 33 32 31 28 26 23 16 19 24 23 28 27 26 20 27 31 31 30 29 29 28 29 29 31 31 31 30 29 29 30 31 32 32 33 35 35 36 36 37 40 43 49 52 52 54 54 54 54 55 56 56 57 57 57 57 57 58 58 59 59 59 59 59 59 59 59 59 59 58 58 57 57 57 56 57 57 58 59 59 59 59 59 58 58 58 58 57 57 56 56 55 55
38 40 38 38 35 37 38 34 32 27 24 22 19 20 22 24 29 28 27 23 26 29 30 30 30 29 30 30 30 31 31 31 30 30 29 30 31 32 34 34 35 34 34 35 37 40 45 47 50 52 53 53 53 54 55 55 56 56 56 56 57 57 57 58 58 58 58 59 59 58 59 59 58 58 57 56 56 56 56 56 56 56 58 58 58 58 58 58 57 57 57 56 56 55 55 54 53
38 38 37 38 37 33 31 30 32 30 26 20 17 21 24 24 29 29 29 27 24 26 29 28 27 28 28 30 30 31 31 31 31 30 31 33 35 35 35 34 34 35 36 36 36 36 39 44 48 49 49 51 52 51 52 54 53 54 55 56 56 53 55 56 57 57 57 58 58 58 58 57 57 58 56 56 56 56 56 56 56 57 57 57 58 58 57 57 56 56 55 55 55 53 53 52 50